Location: Augsburg
(48.3836°N, 10.8929°E)
Time: 08:06:04
(UTC+02:00)

Envisat - Visible Passes

Search period start: 21 April 2018 00:00
Search period end: 01 May 2018 00:00
Orbit: 764 x 766 km, 98.2° (Epoch: 20 April)

Date Brightness Start Highest point End Pass type
(mag) Time Alt. Az. Time Alt. Az. Time Alt. Az.
21 Apr 4.2 21:07:24 10° S 21:12:13 43° W 21:17:04 10° NNW visible
22 Apr 5.8 22:12:55 10° WSW 22:15:10 13° W 22:17:26 10° WNW visible
23 Apr 5.1 21:33:45 10° SSW 21:37:59 26° W 21:42:15 10° NW visible
24 Apr 3.9 20:56:04 10° S 21:01:02 53° W 21:06:01 10° NNW visible
25 Apr 5.6 22:00:47 10° SW 22:03:52 16° W 22:06:58 10° NW visible
26 Apr 4.8 21:22:13 10° SSW 21:26:45 32° W 21:31:19 10° NNW visible
28 Apr 5.5 21:48:55 10° SW 21:52:35 20° W 21:56:16 10° NW visible
29 Apr 4.4 21:10:47 10° SSW 21:15:31 40° W 21:20:19 10° NNW visible
30 Apr 5.9 22:16:45 10° WSW 22:18:31 12° W 22:20:17 10° WNW visible
